Location: Arlington Heights
(34.0422°N, 118.3189°W)
Time: 00:47:52
(UTC+00:00)

Cosmos 1484 Rocket - Pass Details

Date: 26 June 2022
Orbit: 500 x 554 km, 97.5° (Epoch: 16 August)

Event Time Altitude Azimuth Distance (km) Brightness Sun altitude
Rises 12:03:39 0° 10° (N) 2,736 7.1 -7.9°
Reaches altitude 10° 12:05:48 10° 9° (N) 1,833 6.2 -7.5°
Maximum altitude 12:09:45 78° 284° (WNW) 563 2.8 -6.8°
Drops below altitude 10° 12:13:38 10° 197° (SSW) 1,796 5.0 -6.2°
Sets 12:15:44 0° 196° (SSW) 2,675 5.9 -5.8°
Enters shadow 12:15:47 - 196° (SSW) 2,696 5.9 -5.8°
